Location: Navarre
(52.9016°N, 113.4144°W)
Time: 03:01:03
(UTC+00:00)

Envisat - Pass Details

Date: 08 December 2023
Orbit: 762 x 764 km, 98.3° (Epoch: 22 February)

Event Time Altitude Azimuth Distance (km) Brightness Sun altitude
Rises 11:22:46 0° 15° (NNE) 3,245 6.5 -36.3°
Reaches altitude 10° 11:25:05 10° 15° (NNE) 2,315 5.7 -35.9°
Enters shadow 11:25:07 10° 15° (NNE) 2,306 5.7 -35.9°
